Change the Weather History Date:

Wednesday, March 20, 2013

  Actual Average (KMIE) Record (KMIE)
Temperature  
Mean Temperature 26 °F 41 °F  
Max Temperature 30 °F 51 °F 83 °F (2012)
Min Temperature 21 °F 32 °F 11 °F (1993)
Degree Days  
Heating Degree Days 39 24  
Month to date heating degree days 550  
Since 1 July heating degree days 4933  
Cooling Degree Days 0 0  
Month to date cooling degree days 0  
Year to date cooling degree days 0  
Moisture  
Dew Point 13 °F    
Average Humidity 60    
Maximum Humidity 77    
Minimum Humidity 48    
Precipitation  
Precipitation 0.00 in 0.10 in 0.99 in (1982)
Month to date precipitation 1.79  
Year to date precipitation 6.33  
Sea Level Pressure  
Sea Level Pressure 30.01 in    
Wind  
Wind Speed 16 mph (WNW)    
Max Wind Speed 25 mph    
Max Gust Speed 33 mph    
Visibility 8 miles    
Events Snow    
T = Trace of Precipitation, MM = Missing Value Source: NWS Daily Summary

Daily Weather History Graph

Daily Weather History Graph

Search for Another Location

Airport or City:

Trip Planner

Search our weather history database for the weather conditions in past years. The results will help you decide how hot, cold, wet, or windy it might be!

Date:

Astronomy

Mar. 20, 2013 Rise Set
Actual Time 7:45 AM EDT 7:55 PM EDT
Civil Twilight 7:18 AM EDT 8:22 PM EDT
Nautical Twilight 6:46 AM EDT 8:54 PM EDT
Astronomical Twilight 6:14 AM EDT 9:26 PM EDT
Moon 1:28 PM EDT (3/20) 3:26 AM EDT (3/20)
Length of Visible Light 13h 03m
Length of Day
12h 09m
First Quarter, 59% of the Moon is Illuminated
Mar 20
First Quarter
Mar 27
Full
Apr 3
Last Quarter
Apr 10
New
Apr 18
First Quarter

Hourly Weather History & Observations

Time (EDT) Temp. Windchill Dew Point Humidity Pressure Visibility Wind Dir Wind Speed Gust Speed Precip Events Conditions
12:15 AM 30.7 °F 19.6 °F 17.8 °F 59% 30.07 in 5.0 mi WNW 16.1 mph - N/A Snow Light Snow
12:35 AM 30.2 °F 19.3 °F 17.8 °F 60% 30.06 in 10.0 mi West 15.0 mph - N/A   Clear
12:55 AM 30.0 °F 19.1 °F 17.4 °F 59% 30.06 in 10.0 mi WNW 15.0 mph 20.7 mph N/A   Clear
1:15 AM 29.5 °F 18.0 °F 17.1 °F 60% 30.06 in 3.0 mi WNW 16.1 mph 20.7 mph N/A Snow Light Snow
1:35 AM 29.1 °F 18.9 °F 16.5 °F 59% 30.06 in 3.0 mi WNW 12.7 mph - N/A Snow Light Snow
1:55 AM 29.1 °F 18.4 °F 15.4 °F 57% 30.06 in 2.5 mi WNW 13.8 mph 18.4 mph N/A Snow Light Snow
2:15 AM 28.9 °F 18.2 °F 14.9 °F 56% 30.05 in 5.0 mi WNW 13.8 mph - N/A Snow Light Snow
2:35 AM 28.6 °F 18.7 °F 15.1 °F 57% 30.05 in 7.0 mi West 11.5 mph - N/A Snow Light Snow
2:55 AM 27.9 °F 19.1 °F 16.2 °F 62% 30.04 in 7.0 mi West 9.2 mph - N/A   Clear
3:15 AM 27.1 °F 16.9 °F 17.2 °F 66% 30.04 in 10.0 mi West 11.5 mph - N/A   Clear
3:35 AM 27.1 °F 17.5 °F 17.2 °F 66% 30.03 in 7.0 mi West 10.4 mph - N/A   Clear
3:55 AM 26.6 °F 16.8 °F 17.2 °F 68% 30.02 in 10.0 mi West 10.4 mph - N/A   Clear
4:15 AM 26.4 °F 17.3 °F 17.6 °F 69% 30.01 in 10.0 mi West 9.2 mph - N/A   Clear
4:35 AM 26.2 °F 15.8 °F 17.4 °F 69% 30.01 in 10.0 mi West 11.5 mph - N/A   Clear
4:55 AM 26.1 °F 16.2 °F 17.2 °F 69% 30.00 in 10.0 mi West 10.4 mph - N/A   Clear
5:15 AM 25.9 °F 16.0 °F 17.2 °F 70% 30.00 in 10.0 mi West 10.4 mph - N/A   Clear
5:35 AM 25.5 °F 15.5 °F 17.4 °F 71% 30.00 in 10.0 mi West 10.4 mph - N/A   Clear
5:55 AM 25.3 °F 14.1 °F 17.2 °F 71% 30.00 in 10.0 mi West 12.7 mph - N/A   Clear
6:15 AM 25.2 °F 13.3 °F 17.1 °F 71% 29.99 in 10.0 mi West 13.8 mph - N/A   Scattered Clouds
6:35 AM 25.3 °F 14.1 °F 17.2 °F 71% 30.00 in 10.0 mi West 12.7 mph - N/A   Scattered Clouds
6:55 AM 25.3 °F 13.6 °F 17.4 °F 72% 30.00 in 10.0 mi West 13.8 mph - N/A   Mostly Cloudy
7:15 AM 25.3 °F 13.1 °F 17.6 °F 72% 30.00 in 10.0 mi West 15.0 mph - N/A   Overcast
7:35 AM 24.8 °F 12.9 °F 17.8 °F 75% 30.01 in 7.0 mi West 13.8 mph - N/A   Scattered Clouds
7:55 AM 24.4 °F 11.9 °F 17.8 °F 76% 30.01 in 7.0 mi WNW 15.0 mph - N/A   Scattered Clouds
8:15 AM 23.9 °F 12.3 °F 17.6 °F 77% 30.02 in 10.0 mi West 12.7 mph - N/A   Clear
8:35 AM 24.3 °F 12.7 °F 17.2 °F 75% 30.02 in 7.0 mi WNW 12.7 mph - N/A   Clear
8:55 AM 24.8 °F 11.1 °F 17.1 °F 72% 30.02 in 7.0 mi WNW 18.4 mph 21.9 mph N/A   Mostly Cloudy
9:15 AM 24.8 °F 12.4 °F 17.1 °F 72% 30.02 in 10.0 mi WNW 15.0 mph 25.3 mph N/A   Overcast
9:35 AM 25.0 °F 10.9 °F 16.5 °F 70% 30.02 in 10.0 mi NW 19.6 mph 25.3 mph N/A   Overcast
9:55 AM 24.8 °F 11.1 °F 12.4 °F 59% 30.03 in 10.0 mi WNW 18.4 mph 26.5 mph N/A   Scattered Clouds
10:15 AM 24.8 °F 11.5 °F 11.7 °F 57% 30.03 in 5.0 mi WNW 17.3 mph 24.2 mph N/A Snow Light Snow
10:35 AM 25.3 °F 13.1 °F 12.4 °F 58% 30.03 in 4.0 mi WNW 15.0 mph 23.0 mph N/A Snow Light Snow
10:55 AM 25.5 °F 11.6 °F 13.3 °F 60% 30.03 in 5.0 mi WNW 19.6 mph - N/A Snow Light Snow
11:15 AM 25.5 °F 11.3 °F 12.2 °F 57% 30.03 in 10.0 mi WNW 20.7 mph - N/A   Clear
11:55 AM 26.4 °F 14.0 °F 11.8 °F 54% 30.03 in 7.0 mi WNW 16.1 mph - N/A   Scattered Clouds
12:15 PM 26.4 °F 13.6 °F 10.0 °F 50% 30.03 in 7.0 mi WNW 17.3 mph 23.0 mph N/A   Scattered Clouds
12:35 PM 26.8 °F 13.7 °F 12.4 °F 55% 30.03 in 10.0 mi West 18.4 mph 26.5 mph N/A   Scattered Clouds
12:55 PM 27.0 °F 14.3 °F 12.2 °F 54% 30.03 in 7.0 mi WNW 17.3 mph 24.2 mph N/A   Scattered Clouds
1:15 PM 27.0 °F 13.9 °F 11.3 °F 52% 30.02 in 7.0 mi West 18.4 mph 25.3 mph N/A   Scattered Clouds
1:35 PM 27.7 °F 14.1 °F 12.9 °F 54% 30.02 in 7.0 mi West 20.7 mph - N/A   Scattered Clouds
1:55 PM 27.1 °F 13.8 °F 12.9 °F 55% 30.02 in 4.0 mi West 19.6 mph 25.3 mph N/A   Haze
2:15 PM 27.9 °F 14.4 °F 12.9 °F 54% 30.01 in 7.0 mi WNW 20.7 mph 24.2 mph N/A   Mostly Cloudy
2:35 PM 27.9 °F 13.7 °F 12.7 °F 53% 30.01 in 10.0 mi West 23.0 mph 26.5 mph N/A   Mostly Cloudy
2:55 PM 27.5 °F 14.2 °F 12.9 °F 54% 30.00 in 10.0 mi WNW 19.6 mph 27.6 mph N/A   Mostly Cloudy
3:15 PM 27.3 °F 13.0 °F 12.2 °F 53% 30.00 in 10.0 mi WNW 23.0 mph 28.8 mph N/A   Overcast
3:35 PM 27.0 °F 12.2 °F 11.7 °F 53% 30.00 in 10.0 mi West 24.2 mph 29.9 mph N/A   Mostly Cloudy
3:55 PM 27.0 °F 12.8 °F 11.7 °F 53% 30.00 in 10.0 mi West 21.9 mph 29.9 mph N/A   Overcast
4:15 PM 27.0 °F 13.2 °F 11.5 °F 52% 30.00 in 10.0 mi WNW 20.7 mph 33.4 mph N/A   Overcast
4:35 PM 26.8 °F 13.7 °F 11.1 °F 52% 29.99 in 10.0 mi West 18.4 mph 33.4 mph N/A   Overcast
4:55 PM 26.2 °F 13.0 °F 9.3 °F 49% 29.99 in 10.0 mi WNW 18.4 mph - N/A   Mostly Cloudy
5:15 PM 26.6 °F 11.7 °F 9.3 °F 48% 29.99 in 10.0 mi West 24.2 mph 31.1 mph N/A   Mostly Cloudy
5:35 PM 27.1 °F 13.4 °F 9.7 °F 48% 29.99 in 10.0 mi West 20.7 mph 32.2 mph N/A   Overcast
5:55 PM 27.0 °F 12.2 °F 9.9 °F 49% 29.99 in 10.0 mi West 24.2 mph 33.4 mph N/A   Overcast
6:15 PM 26.2 °F 10.9 °F 9.5 °F 49% 29.99 in 10.0 mi West 25.3 mph 29.9 mph N/A   Mostly Cloudy
6:35 PM 25.9 °F 11.7 °F 9.3 °F 50% 29.99 in 10.0 mi WNW 20.7 mph - N/A   Mostly Cloudy
6:55 PM 25.7 °F 11.2 °F 8.6 °F 48% 30.00 in 10.0 mi WNW 21.9 mph 31.1 mph N/A   Mostly Cloudy
7:15 PM 25.2 °F 10.1 °F 8.1 °F 48% 30.00 in 10.0 mi WNW 23.0 mph 27.6 mph N/A   Mostly Cloudy
7:35 PM 24.8 °F 9.6 °F 8.2 °F 49% 30.00 in 2.0 mi WNW 23.0 mph 28.8 mph N/A Snow Light Snow
7:55 PM 24.6 °F 10.5 °F 8.2 °F 50% 30.00 in 2.5 mi WNW 19.6 mph 23.0 mph N/A Snow Light Snow
8:15 PM 24.1 °F 11.0 °F 9.5 °F 54% 30.01 in 2.0 mi NW 16.1 mph 23.0 mph N/A Snow Light Snow
8:35 PM 23.9 °F 9.5 °F 10.0 °F 56% 30.00 in 7.0 mi WNW 19.6 mph 26.5 mph N/A Snow Light Snow
8:55 PM 23.7 °F 9.7 °F 9.5 °F 55% 30.00 in 4.0 mi WNW 18.4 mph 25.3 mph N/A Snow Light Snow
9:15 PM 23.0 °F 10.1 °F 9.9 °F 57% 30.01 in 3.0 mi WNW 15.0 mph 18.4 mph N/A Snow Light Snow
9:35 PM 22.6 °F 9.6 °F 10.6 °F 60% 30.00 in 2.0 mi WNW 15.0 mph - N/A Snow Light Snow
9:55 PM 22.3 °F 9.2 °F 12.0 °F 65% 30.01 in 5.0 mi NW 15.0 mph - N/A Snow Light Snow
10:15 PM 22.6 °F 10.1 °F 11.7 °F 63% 30.00 in 7.0 mi WNW 13.8 mph 21.9 mph N/A   Overcast
10:35 PM 22.5 °F 8.9 °F 11.3 °F 62% 30.00 in 10.0 mi NW 16.1 mph - N/A   Overcast
10:55 PM 22.1 °F 9.5 °F 10.6 °F 61% 30.00 in 3.0 mi NW 13.8 mph 19.6 mph N/A Snow Light Snow
11:15 PM 22.1 °F 8.9 °F 9.5 °F 58% 30.00 in 7.0 mi NW 15.0 mph - N/A Snow Light Snow
11:35 PM 22.1 °F 8.5 °F 9.1 °F 58% 29.99 in 3.0 mi NW 16.1 mph - N/A Snow Light Snow
11:55 PM 21.6 °F 10.6 °F 10.8 °F 63% 29.99 in 4.0 mi NW 10.4 mph - N/A Snow Light Snow